Dewpoint
56 42 34 33 22 24 17 15 21 19 19 20 23 22 23 25 35 23 54 63 66 67 68 68 68 68 70 71 71 71 71 71 71 71 71 71 71 70 70 70 70 69 69 69 69 69 68 68 69
47 34 34 31 16 4 4 22 20 21 23 24 23 34 31 25 44 50 54 64 66 68 68 68 67 68 70 71 71 70 72 71 71 71 71 71 70 70 70 70 69 69 69 69 68 68 68 69 69
38 34 29 27 21 1 1 14 20 22 24 22 17 30 31 32 54 53 57 65 66 67 68 68 67 67 68 70 71 70 70 71 71 71 71 70 70 70 70 70 69 68 68 68 67 68 69 68 68
35 33 30 24 16 19 9 17 24 24 21 20 19 19 35 47 55 58 60 65 66 67 67 68 67 67 68 70 70 69 69 70 71 70 70 70 70 70 67 67 68 68 69 68 67 68 68 68 67
31 29 20 23 21 20 23 23 25 22 21 22 21 20 30 49 58 61 64 65 65 67 68 68 68 67 69 69 70 70 68 69 70 70 70 70 69 67 66 66 65 67 67 67 67 67 68 67 66
23 27 17 12 19 18 22 23 21 19 19 20 21 21 28 55 59 62 66 66 67 67 68 67 68 68 68 68 69 70 69 68 69 70 69 68 67 65 66 65 64 65 67 67 67 67 67 66 66
18 22 12 17 18 17 15 22 20 16 18 19 27 29 37 50 59 64 65 66 67 68 67 66 68 68 68 68 69 69 69 69 69 68 67 66 66 65 65 64 63 64 66 66 66 66 66 65 64
21 20 17 20 15 11 15 20 21 20 18 23 35 29 23 46 61 64 65 66 66 67 67 66 67 68 68 68 68 68 68 68 66 66 65 65 65 65 65 65 64 64 66 66 66 66 65 64 63
26 17 16 15 16 13 21 20 22 22 21 21 23 31 35 54 62 62 63 64 65 66 67 66 67 68 68 68 67 67 67 66 65 65 64 63 64 64 64 64 63 63 65 66 65 65 64 63 62
26 21 18 20 17 14 17 19 20 21 21 21 22 26 40 56 59 60 60 61 63 64 65 66 67 67 68 67 66 66 66 65 64 64 63 64 64 63 63 63 63 63 65 65 64 64 63 61 60
29 22 22 21 21 21 18 19 20 18 19 21 19 24 38 44 53 59 60 60 61 64 64 65 66 67 67 66 66 65 65 64 64 63 62 63 62 62 62 63 63 64 64 64 64 62 61 60 59
25 30 25 21 23 24 22 19 21 22 22 24 26 27 26 34 43 52 59 59 60 62 64 64 65 65 65 65 65 64 63 63 63 63 62 62 62 61 61 62 62 62 63 63 62 61 60 59 58
29 29 29 29 28 27 27 26 26 27 26 27 27 26 26 26 35 46 53 58 59 60 63 64 64 64 64 64 64 64 64 63 63 62 62 62 61 61 61 61 62 62 61 61 61 59 59 58 57
20 22 23 24 24 24 24 24 25 24 28 27 27 26 25 26 29 38 53 56 58 59 61 64 63 64 63 62 63 63 63 64 63 62 62 61 61 61 62 62 61 62 60 60 59 58 58 57 56
21 19 24 26 26 26 26 20 22 25 27 26 26 26 26 25 25 35 41 51 56 58 60 62 63 63 63 62 62 62 62 63 62 61 62 61 61 61 61 61 61 61 59 57 57 57 56 56 55
19 22 17 23 26 26 25 16 21 22 24 24 24 24 25 24 24 30 41 48 53 56 59 61 62 61 62 63 62 61 61 61 61 61 61 62 62 62 61 61 61 60 58 56 55 55 55 55 54
19 10 20 20 25 25 23 19 24 27 27 26 26 25 24 24 25 27 39 47 53 56 58 60 61 60 61 62 61 61 60 60 60 61 60 61 61 61 61 61 61 59 57 55 54 54 54 54 53
7 15 21 19 24 23 20 20 20 24 25 26 27 27 28 28 27 28 30 42 53 56 58 59 60 60 61 61 61 61 60 60 60 60 60 60 61 62 61 60 59 59 57 54 53 53 54 54 53
20 21 20 20 20 18 16 17 20 23 23 24 25 26 27 28 28 29 31 46 54 57 57 58 59 59 60 60 60 59 58 59 59 60 60 60 61 62 61 60 58 58 57 53 53 54 54 53 53
17 15 15 20 21 24 25 25 24 24 23 23 24 26 26 27 28 30 43 51 54 55 57 57 58 58 58 59 60 60 60 60 60 60 60 60 60 62 60 58 58 57 57 54 52 53 53 53 53
19 18 21 22 27 28 26 21 20 22 23 24 24 26 26 26 27 29 45 51 54 55 56 56 56 56 57 57 58 59 59 59 59 59 60 60 60 61 59 58 57 57 56 54 52 53 52 52 53
22 26 26 29 27 19 28 15 17 22 24 25 27 28 27 27 29 31 43 51 53 54 56 56 56 56 56 57 56 56 56 56 57 59 59 58 59 60 57 58 57 55 54 54 53 52 52 53 52
28 33 30 29 28 27 25 24 21 22 21 24 27 28 30 31 31 32 45 51 54 55 54 55 55 55 55 57 57 56 56 57 58 59 57 56 56 56 56 56 53 52 53 54 53 51 52 54 52
33 29 29 30 27 23 23 22 19 21 25 33 37 36 32 31 31 37 50 53 54 54 54 55 55 55 55 56 57 56 56 57 57 57 56 55 55 56 53 53 52 52 52 53 53 53 52 53 53
30 28 22 22 21 17 24 23 21 26 38 40 41 41 40 38 34 48 51 52 54 54 54 55 54 54 55 56 56 56 57 57 57 56 56 55 54 55 56 54 54 54 55 54 54 54 52 52 52
30 28 21 13 19 21 28 22 22 39 40 41 42 43 45 46 44 46 51 53 53 53 53 54 54 53 54 55 55 56 56 57 57 56 57 57 56 55 55 55 54 56 55 55 55 54 53 53 53
32 28 32 28 28 23 22 26 30 38 38 38 40 42 44 46 47 43 50 53 53 53 53 53 53 53 54 54 55 55 55 56 56 57 57 57 57 57 56 55 53 53 52 53 54 55 54 54 54
32 35 29 29 20 19 21 22 23 36 37 38 39 41 44 47 47 42 48 53 53 53 53 53 53 53 54 54 55 54 54 54 56 56 56 57 57 57 57 56 55 55 54 52 52 54 55 52 52
32 31 32 32 30 23 21 20 38 37 35 38 40 42 46 47 49 49 51 52 52 53 53 53 53 52 54 54 54 55 54 54 54 54 55 56 56 57 57 57 57 56 55 53 52 51 54 55 54
34 30 29 26 26 29 28 24 38 31 35 39 42 43 45 46 50 51 51 51 52 52 53 53 53 53 53 54 55 55 56 55 54 54 54 55 55 56 56 57 56 56 56 56 55 52 51 54 54
Wind_Speed
8 4 2 2 3 0 3 6 3 4 3 3 3 4 9 1 7 3 4 14 10 17 18 20 19 19 16 16 16 15 19 24 25 26 27 26 26 24 22 20 23 23 24 24 24 23 24 24 21
9 5 3 3 4 8 7 4 9 6 3 10 6 4 4 5 3 1 8 13 11 16 18 18 19 19 15 15 17 19 19 21 23 23 23 23 23 23 22 21 23 22 22 22 22 24 25 24 23
8 4 4 4 5 18 7 9 12 4 12 3 1 4 3 3 3 4 5 19 13 14 16 17 20 19 17 15 16 18 20 20 22 23 24 23 23 22 21 20 22 21 22 21 22 23 24 23 23
5 3 4 6 13 9 7 2 4 4 2 1 4 11 4 3 3 3 10 19 15 14 14 17 20 19 17 14 16 18 18 21 20 22 23 23 23 25 25 23 21 21 21 21 21 23 23 20 22
4 2 5 6 11 9 8 7 6 8 7 6 4 6 5 3 4 5 12 17 18 14 13 16 19 19 17 19 18 17 18 20 22 21 22 23 23 24 26 23 21 21 20 20 21 23 22 21 21
4 3 6 18 13 10 7 11 8 7 5 5 2 4 6 4 6 10 13 16 14 15 13 12 18 19 19 19 19 20 21 22 22 24 26 27 25 22 23 24 19 19 18 19 22 24 22 21 21
7 6 13 9 7 11 14 10 14 16 11 5 4 3 4 6 3 5 10 13 14 12 13 12 14 17 18 20 21 21 22 22 21 21 18 21 22 22 25 24 24 19 19 22 24 23 23 21 20
5 5 9 8 11 15 8 7 4 12 10 1 2 3 3 3 3 6 8 10 12 13 12 13 13 15 14 15 20 21 20 21 20 19 20 19 18 17 16 18 25 21 23 25 26 24 22 21 20
3 8 14 13 11 11 2 6 3 1 4 2 3 4 3 5 7 10 7 8 11 12 13 14 15 15 16 12 15 20 22 22 21 20 21 21 15 16 18 15 16 18 23 25 28 24 22 19 20
8 12 14 8 16 14 9 12 10 5 8 11 15 15 6 3 6 15 17 18 15 17 16 16 16 16 16 13 17 17 18 19 17 18 20 16 15 15 17 17 18 18 22 22 28 25 23 20 17
6 19 9 6 17 6 15 16 13 15 18 20 20 16 6 9 9 17 21 22 21 14 14 17 18 17 16 14 15 13 13 14 15 16 16 15 14 12 12 11 15 16 18 16 22 24 21 18 17
8 8 14 11 11 10 17 21 20 20 19 20 19 22 14 15 16 20 23 25 19 17 15 17 18 18 16 14 15 14 14 16 17 18 16 15 13 13 14 15 16 17 15 18 20 19 18 17 15
10 8 11 10 15 15 16 23 24 14 17 21 21 15 18 20 21 21 24 21 20 21 20 17 18 18 16 15 14 15 14 15 17 18 18 16 15 17 15 16 15 16 16 17 18 19 19 17 16
5 5 8 9 15 15 21 30 20 23 15 19 19 19 19 22 24 17 17 23 23 23 25 21 19 16 17 15 15 15 15 15 16 17 20 19 17 15 16 18 19 16 18 17 18 20 19 19 18
4 10 9 9 14 14 7 27 21 28 21 20 24 24 21 23 20 20 23 22 26 26 22 23 19 18 18 17 15 13 13 15 16 17 20 21 20 19 19 18 17 18 18 21 20 19 17 16 16
5 5 7 2 2 6 9 21 14 10 11 15 17 20 22 23 21 18 20 21 19 22 24 21 18 19 17 16 13 12 12 13 14 15 17 21 21 20 22 18 19 19 20 21 20 20 18 17 16
3 12 8 6 2 3 10 14 4 20 19 20 19 16 17 17 17 17 18 19 20 23 23 23 22 21 18 16 13 11 12 13 13 13 15 20 19 21 20 21 19 21 20 19 21 19 19 19 16
9 9 7 9 3 14 22 34 22 18 23 24 21 24 19 20 21 19 16 15 17 21 23 23 22 20 19 15 13 12 13 13 14 15 16 19 18 20 20 20 19 21 21 20 21 21 18 19 18
4 5 9 8 10 16 23 34 21 20 22 26 26 26 24 24 25 19 14 11 15 20 23 24 24 20 18 16 16 16 16 15 15 15 17 19 15 20 18 19 22 20 22 24 22 21 22 17 17
17 18 18 10 11 9 17 39 30 30 32 30 30 31 28 27 24 20 11 11 18 21 22 23 23 22 19 17 13 7 10 12 14 16 20 21 22 17 20 21 22 22 20 23 23 23 19 15 20
14 17 11 12 10 13 17 25 9 6 14 25 29 33 31 29 26 21 14 16 18 21 24 24 24 22 18 16 12 7 5 3 12 16 14 24 25 23 22 25 22 22 20 25 26 23 22 16 20
18 11 11 7 5 6 7 17 11 3 10 15 19 21 24 28 25 21 17 18 21 20 19 22 21 20 17 17 16 16 13 13 7 11 12 16 21 22 23 25 24 22 20 22 23 20 21 18 22
6 5 5 5 7 6 4 8 6 14 10 12 20 18 22 25 26 22 17 18 19 20 20 20 19 18 17 16 15 14 12 7 9 7 18 21 17 16 23 23 23 21 19 20 22 20 19 17 19
7 2 3 4 6 7 10 12 6 6 11 29 24 21 17 18 19 12 13 18 21 20 19 20 20 18 17 16 15 15 13 11 9 9 16 16 17 16 19 20 20 19 18 20 20 19 18 18 17
5 4 3 2 7 7 5 12 18 20 10 14 19 21 20 20 10 11 17 19 24 24 23 22 21 20 18 16 15 14 13 12 11 11 14 20 18 17 19 20 18 17 16 16 16 17 18 18 19
12 6 4 4 5 2 4 9 3 4 6 9 16 18 20 19 18 8 15 21 23 24 22 23 23 21 18 16 14 13 12 10 9 10 9 14 18 18 18 18 16 16 14 12 12 14 17 16 16
5 6 1 2 5 6 6 6 6 8 12 15 17 22 28 27 20 14 18 20 23 25 23 21 22 21 19 17 14 13 12 11 10 10 11 10 16 18 22 22 20 20 19 17 14 13 16 17 18
2 5 3 3 3 4 5 8 8 8 17 21 25 25 26 30 27 12 16 20 19 20 19 19 20 20 19 17 15 12 11 10 10 10 10 13 12 17 21 22 22 21 22 24 22 17 11 15 19
5 3 2 1 3 3 3 2 2 10 17 17 22 23 23 28 18 2 8 15 18 17 18 18 19 19 19 17 18 15 12 10 9 10 10 12 13 14 16 17 19 22 23 24 23 22 14 16 17
2 4 5 3 2 4 5 9 5 15 18 15 18 18 20 27 16 5 8 13 16 17 17 17 18 20 18 16 17 16 16 15 12 11 11 11 14 15 18 17 16 16 17 19 23 26 24 19 19
Wind_Direction
158 140 113 61 213 9 229 235 264 247 240 218 156 180 201 168 172 208 352 166 139 148 164 169 172 174 174 161 152 151 157 160 160 159 157 157 153 148 147 149 147 150 146 148 145 142 134 133 128
139 122 67 107 212 229 242 221 217 193 288 302 245 233 205 229 216 186 142 181 153 150 161 171 177 178 174 157 155 161 162 159 158 159 155 153 151 147 146 146 142 145 145 147 147 140 137 134 130
124 91 163 196 192 231 231 211 205 196 310 247 244 246 232 216 192 187 205 166 149 153 161 172 176 178 177 161 157 163 165 156 157 156 156 156 152 148 144 144 145 151 146 152 149 142 135 133 131
145 111 76 225 220 237 221 170 182 306 299 106 5 292 275 227 169 212 163 166 157 160 165 171 175 177 173 168 157 165 167 160 156 158 158 157 155 155 155 150 149 151 153 153 152 141 133 132 129
64 99 201 226 234 249 231 240 263 280 296 282 345 275 237 229 195 173 169 166 163 162 166 171 173 174 177 175 164 158 165 170 160 159 160 160 160 164 153 157 161 157 156 157 145 136 131 131 129
133 135 215 230 231 243 239 241 258 269 274 286 312 261 255 350 194 174 170 169 158 159 165 170 176 175 178 180 174 160 162 168 171 166 166 167 169 166 151 156 166 162 160 151 142 136 134 133 131
194 181 231 232 239 253 253 205 229 252 240 251 184 232 277 325 253 161 173 167 155 156 162 170 177 187 184 185 176 171 167 168 171 176 179 165 164 161 154 163 155 175 159 149 141 137 136 136 133
164 197 223 220 222 247 241 201 226 195 241 280 172 255 310 310 159 138 164 173 163 165 165 174 175 183 186 190 178 174 167 165 157 142 133 132 144 151 156 167 158 175 160 150 142 140 139 138 132
133 227 235 223 199 234 254 214 202 262 260 314 267 246 302 313 160 153 171 185 179 181 182 177 175 182 184 170 169 164 164 160 158 147 142 143 149 145 145 156 167 182 154 147 145 141 137 134 128
198 227 232 213 230 244 252 237 238 238 255 275 280 268 254 221 203 198 198 203 208 193 190 182 179 180 180 170 164 169 174 172 164 161 158 159 152 153 154 170 174 191 160 153 145 136 134 148 150
202 238 222 229 240 252 263 257 256 259 255 258 269 281 227 284 244 225 219 213 210 206 191 189 183 180 177 174 172 174 172 170 168 160 162 161 163 164 164 174 171 184 155 145 142 146 158 161 159
236 227 234 243 237 243 252 268 262 247 250 257 265 272 273 269 255 233 228 220 209 205 205 192 187 176 176 173 178 174 177 176 174 171 161 162 163 168 179 192 185 162 157 154 158 162 159 159 160
232 241 235 244 255 250 258 261 262 257 247 263 262 264 265 268 259 245 233 229 207 207 206 200 188 181 178 176 181 178 185 188 186 177 173 173 179 177 180 199 174 153 150 156 165 162 158 161 156
184 207 259 251 259 258 259 265 264 271 259 252 260 256 257 263 261 261 232 224 211 209 206 198 192 180 177 183 184 184 189 186 190 190 185 184 186 187 184 188 175 160 159 164 170 166 163 168 162
255 285 281 250 244 250 251 268 251 257 270 260 260 263 256 257 265 250 246 232 219 210 199 196 187 184 182 185 183 184 193 192 189 191 191 192 192 192 187 182 168 161 162 167 167 162 163 160 162
267 251 273 236 171 248 199 256 288 253 269 269 262 263 267 263 261 260 255 242 225 212 197 185 183 187 183 186 180 183 188 190 187 188 190 196 195 193 183 179 172 159 157 169 163 160 161 162 168
255 257 232 290 236 297 228 269 316 322 309 300 295 288 278 277 274 262 254 242 216 201 191 186 183 185 175 185 185 188 189 191 191 184 192 199 187 193 179 172 165 156 155 172 164 166 165 167 173
228 239 235 238 268 312 289 278 280 280 286 281 279 283 277 274 270 270 268 250 213 197 189 185 179 179 177 181 189 194 196 197 191 189 192 191 189 184 173 162 155 154 161 168 166 163 168 170 166
226 246 264 275 275 288 279 282 287 281 278 278 270 263 267 271 274 275 271 231 198 187 181 182 174 171 165 178 185 198 200 198 195 190 186 188 189 178 169 160 158 160 171 170 162 158 162 164 165
237 257 266 282 259 284 292 287 289 273 265 260 258 256 255 261 264 266 252 207 203 188 181 177 177 170 177 185 183 189 190 205 198 197 197 190 192 189 166 160 162 164 173 162 163 161 159 157 171
228 238 249 264 290 282 292 286 280 280 254 254 253 252 254 250 251 258 237 212 202 191 183 178 173 167 176 177 177 167 159 185 200 205 201 195 191 187 171 163 166 168 169 171 172 168 168 161 178
246 219 234 241 293 272 15 295 282 285 290 270 267 258 249 248 246 248 233 211 202 190 178 174 171 169 175 178 186 196 206 211 209 207 181 166 182 180 163 169 167 166 169 173 175 172 173 165 174
226 148 189 216 253 285 249 244 309 286 304 333 329 298 257 248 247 245 223 207 190 176 169 171 167 168 171 169 182 188 202 210 192 184 168 157 150 150 156 155 159 162 165 169 171 171 175 180 175
148 206 267 223 225 258 232 214 287 310 355 329 337 334 326 296 261 240 199 179 177 174 164 165 162 171 169 175 183 189 192 181 169 163 149 145 145 144 143 147 151 157 159 163 169 169 174 169 181
164 162 195 208 201 241 190 214 262 310 348 343 341 340 339 330 299 189 180 179 177 176 173 163 169 168 168 173 175 177 177 178 171 163 158 149 145 145 147 143 146 149 147 146 158 171 178 177 185
175 196 213 244 216 202 239 236 247 26 359 12 9 355 344 339 325 248 198 181 184 175 176 170 170 167 167 168 165 169 168 162 162 156 151 157 152 155 148 140 140 129 135 147 165 186 186 180 191
159 201 225 260 240 261 230 261 218 14 4 13 17 9 352 337 319 278 209 189 184 178 176 174 168 162 165 170 158 160 157 156 159 157 151 145 151 153 157 160 161 169 177 185 192 204 201 187 193
177 139 179 204 236 249 247 255 238 356 348 352 3 4 1 341 331 286 200 186 182 178 165 161 166 163 163 168 160 162 159 155 159 150 151 152 139 155 164 165 172 176 180 190 199 212 217 211 217
158 171 227 228 219 269 294 261 152 11 346 337 354 356 7 348 350 20 183 174 172 158 159 157 161 160 157 170 166 162 165 161 157 168 169 156 153 156 165 170 173 174 180 193 201 211 217 218 215
138 162 185 189 161 271 274 265 94 9 7 360 354 0 5 0 347 40 143 153 155 152 151 157 158 159 162 166 164 163 162 169 178 183 183 173 174 175 175 175 179 184 187 190 193 208 218 214 215